Home > Weather > Svolvær > Past weeks

Flag for Norway Past Weather in Svolvær, Norway — Yesterday and Last 2 Weeks

Now
49 °F

Cool.


Feels Like: 45 °F
Forecast: 47 / 55 °F
Wind: 10 mph from Northeast

Location: Skrova Fyr

Current Time: Jun 1, 2016 at 3:43:22 AM

Latest Report: Jun 1, 2016 at 3:00 AM


Visibility: N/A

Pressure: 30.36 "Hg

Humidity: 84%

Dew Point: 45 °F

Location of SvolværLocation

Past Weather in Svolvær — Graph

°F

Svolvær Temperature Yesterday

Maximum temperature yesterday: 59 °F (at 5:00 PM)
Minimum temperature yesterday: 49 °F (at 4:00 AM)
Average temperature yesterday: 53 °F

High & Low Weather Summary for the Past Weeks

 TemperatureHumidityPressure
High63 °F (May 30, 3:00 PM)96% (May 24, 10:00 AM)30.36 "Hg (May 24, 10:00 AM)
Low36 °F (May 18, 3:00 AM)36% (May 20, 8:00 PM)29.47 "Hg (May 17, 2:00 AM)
Average48 °F73%30.02 "Hg
* Reported May 17 2:00 AM — Jun 1 2:00 AM, Svolvær, Weather by CustomWeather, © 2016

Note: Actual official high and low records may vary slightly from our data, if they occured in-between our weather recording intervals... More about our weather records

Advertising

Svolvær Weather History for the Previous 24 Hours

Scroll right to see more
 ConditionsComfort  
Time TempWeatherWind HumidityBarometerVisibility
2:00 AM
Wed, Jun 1
50 °FCool.12 mph84%30.36 "HgN/A
1:00 AM50 °FCool.10 mph83%30.35 "HgN/A
12:00 AM51 °FCool.12 mph81%30.33 "HgN/A
11:00 PM
Tue, May 31
53 °FCool.10 mph77%30.32 "HgN/A
10:00 PM54 °FCool.12 mph74%30.31 "HgN/A
9:00 PM55 °FCool.12 mph72%30.30 "HgN/A
8:00 PM55 °FOvercast.10 mph72%30.29 "Hg47 mi
7:00 PM58 °FCool.9 mph66%30.28 "HgN/A
6:00 PM58 °FCool.9 mph65%30.28 "HgN/A
5:00 PM59 °FCool.8 mph63%30.28 "HgN/A
2:00 PM58 °FPartly sunny.6 mph65%30.29 "Hg47 mi
10:00 AM54 °FCool.2 mph72%30.28 "HgN/A
9:00 AM53 °FCool.5 mph75%30.28 "HgN/A
8:00 AM52 °FScattered clouds.5 mph80%30.28 "Hg47 mi
7:00 AM50 °FCool.7 mph84%30.28 "HgN/A
6:00 AM50 °FCool.6 mph85%30.29 "HgN/A
5:00 AM50 °FCool.5 mph86%30.28 "HgN/A
4:00 AM49 °FCool.6 mph89%30.27 "HgN/A
3:00 AM50 °FCool.6 mph85%30.28 "HgN/A
Weather by CustomWeather, © 2016

See weather overviewHow to use our weather pages